Hilton Head Island, SC

6:03 PM EST on January 18, 2017 (GMT -0500)
Hilton Head

Weather History for KHXD - January, 2014

Change the Weather History Date:

Monday, January 20, 2014

  Actual Average Record
Temperature  
Mean Temperature 52 °F -  
Max Temperature 66 °F 57 °F 64 °F (2015)
Min Temperature 37 °F 38 °F 35 °F (2016)
Degree Days  
Heating Degree Days 14    
Growing Degree Days 2 (Base 50)    
Moisture  
Dew Point 36 °F    
Average Humidity 64    
Maximum Humidity 87    
Minimum Humidity 23    
Precipitation  
Precipitation 0.00 in - - ()
Sea Level Pressure  
Sea Level Pressure 30.03 in    
Wind  
Wind Speed 6 mph (SW)    
Max Wind Speed 12 mph    
Max Gust Speed 21 mph    
Visibility 10 miles    
Events      
Averages and records for this station are not official NWS values.
T = Trace of Precipitation, MM = Missing Value Source: NWS Daily Summary

Daily Weather History Graph

Daily Weather History Graph

Search for Another Location

Airport or City:

Trip Planner

Search our weather history database for the weather conditions in past years. The results will help you decide how hot, cold, wet, or windy it might be!

Date:

Astronomy

Jan. 20, 2014 Rise Set
Actual Time 7:22 AM EST 5:45 PM EST
Civil Twilight 6:56 AM EST 6:11 PM EST
Nautical Twilight 6:26 AM EST 6:41 PM EST
Astronomical Twilight 5:57 AM EST 7:10 PM EST
Moon 10:00 PM EST (1/20) 9:38 AM EST (1/20)
Length of Visible Light 11h 15m
Length of Day
10h 22m
Waning Gibbous, 83% of the Moon is Illuminated
Jan 20
Waning Gibbous
Jan 24
Last Quarter
Jan 30
New
Feb 6
First Quarter
Feb 14
Full

Hourly Weather History & Observations

Time (EST) Temp. Windchill Dew Point Humidity Pressure Visibility Wind Dir Wind Speed Gust Speed Precip Events Conditions
12:15 AM 39.2 °F 35.0 °F 35.6 °F 87% 30.08 in 10.0 mi SW 5.8 mph - 0.00 in   Clear
12:35 AM 42.8 °F 39.3 °F 33.8 °F 70% 30.09 in 10.0 mi SW 5.8 mph - 0.00 in   Clear
12:55 AM 44.6 °F 41.4 °F 33.8 °F 66% 30.08 in 10.0 mi SW 5.8 mph - 0.00 in   Clear
1:15 AM 44.6 °F 40.7 °F 33.8 °F 66% 30.08 in 10.0 mi SW 6.9 mph - 0.00 in   Clear
1:35 AM 46.4 °F 42.9 °F 33.8 °F 62% 30.08 in 10.0 mi SW 6.9 mph - 0.00 in   Clear
1:55 AM 44.6 °F 42.2 °F 33.8 °F 66% 30.08 in 10.0 mi SSW 4.6 mph - 0.00 in   Clear
2:15 AM 44.6 °F 41.4 °F 33.8 °F 66% 30.08 in 10.0 mi SW 5.8 mph - 0.00 in   Clear
2:35 AM 44.6 °F 40.7 °F 33.8 °F 66% 30.08 in 10.0 mi WSW 6.9 mph - 0.00 in   Clear
2:55 AM 44.6 °F 41.4 °F 33.8 °F 66% 30.07 in 10.0 mi West 5.8 mph - 0.00 in   Clear
3:15 AM 44.6 °F 40.7 °F 33.8 °F 66% 30.07 in 10.0 mi WSW 6.9 mph - 0.00 in   Clear
3:35 AM 44.6 °F 40.7 °F 32.0 °F 61% 30.07 in 10.0 mi SW 6.9 mph - 0.00 in   Clear
3:55 AM 42.8 °F 41.1 °F 32.0 °F 66% 30.07 in 10.0 mi SW 3.5 mph - 0.00 in   Clear
4:15 AM 42.8 °F 39.3 °F 32.0 °F 66% 30.07 in 10.0 mi WSW 5.8 mph - 0.00 in   Clear
4:35 AM 42.8 °F 40.1 °F 32.0 °F 66% 30.07 in 10.0 mi WSW 4.6 mph - 0.00 in   Clear
4:55 AM 42.8 °F 40.1 °F 32.0 °F 66% 30.06 in 10.0 mi SW 4.6 mph - 0.00 in   Clear
5:15 AM 41.0 °F 37.1 °F 32.0 °F 70% 30.07 in 10.0 mi WSW 5.8 mph - 0.00 in   Clear
5:35 AM 42.8 °F 39.3 °F 32.0 °F 66% 30.08 in 10.0 mi WSW 5.8 mph - 0.00 in   Clear
6:50 AM 37.4 °F 33.8 °F 32.0 °F 81% 30.08 in 10.0 mi WSW 4.6 mph - N/A   Clear
7:50 AM 39.2 °F 35.9 °F 32.0 °F 75% 30.09 in 10.0 mi SW 4.6 mph - N/A   Clear
8:50 AM 44.6 °F 40.7 °F 33.8 °F 66% 30.09 in 10.0 mi WSW 6.9 mph - N/A   Clear
9:50 AM 50.0 °F - 32.0 °F 50% 30.11 in 10.0 mi WSW 11.5 mph 17.3 mph N/A   Clear
10:50 AM 55.4 °F - 32.0 °F 41% 30.10 in 10.0 mi WSW 9.2 mph 17.3 mph N/A   Clear
11:50 AM 59.0 °F - 32.0 °F 36% 30.07 in 10.0 mi SSW 8.1 mph 13.8 mph N/A   Clear
12:50 PM 62.6 °F - 26.6 °F 26% 30.02 in 10.0 mi WSW 9.2 mph 20.7 mph N/A   Clear
1:50 PM 64.4 °F - 26.6 °F 24% 29.99 in 10.0 mi SW 10.4 mph 18.4 mph N/A   Clear
2:50 PM 66.2 °F - 26.6 °F 23% 29.97 in 10.0 mi SW 11.5 mph 18.4 mph N/A   Clear
3:50 PM 66.2 °F - 26.6 °F 23% 29.96 in 10.0 mi WSW 11.5 mph - N/A   Clear
4:50 PM 60.8 °F - 42.8 °F 52% 29.97 in 10.0 mi South 4.6 mph - N/A   Clear
5:50 PM 55.4 °F - 42.8 °F 63% 29.98 in 10.0 mi South 4.6 mph - N/A   Clear
6:50 PM 50.0 °F - 42.8 °F 76% 29.99 in 10.0 mi South 4.6 mph - N/A   Clear
7:50 PM 50.0 °F - 44.6 °F 82% 29.99 in 10.0 mi South 5.8 mph - N/A   Clear
8:15 PM 50.0 °F - 44.6 °F 82% 29.99 in 10.0 mi South 4.6 mph - 0.00 in   Clear
8:35 PM 51.8 °F - 44.6 °F 76% 29.99 in 9.0 mi South 5.8 mph - 0.00 in   Clear
8:55 PM 51.8 °F - 44.6 °F 76% 29.99 in 10.0 mi South 6.9 mph - 0.00 in   Clear
9:15 PM 51.8 °F - 44.6 °F 76% 29.98 in 10.0 mi South 6.9 mph - 0.00 in   Clear
9:35 PM 51.8 °F - 44.6 °F 76% 29.98 in 10.0 mi South 6.9 mph - 0.00 in   Clear
9:55 PM 51.8 °F - 44.6 °F 76% 29.97 in 10.0 mi South 6.9 mph - 0.00 in   Clear
10:15 PM 51.8 °F - 44.6 °F 76% 29.97 in 10.0 mi South 6.9 mph - 0.00 in   Clear
10:35 PM 51.8 °F - 44.6 °F 76% 29.96 in 10.0 mi South 8.1 mph - 0.00 in   Clear
10:55 PM 51.8 °F - 44.6 °F 76% 29.96 in 10.0 mi South 8.1 mph - 0.00 in   Clear
11:15 PM 51.8 °F - 42.8 °F 71% 29.96 in 10.0 mi South 8.1 mph - 0.00 in   Clear
11:35 PM 51.8 °F - 41.0 °F 67% 29.95 in 10.0 mi South 8.1 mph - 0.00 in   Clear
11:55 PM 51.8 °F - 39.2 °F 62% 29.94 in 10.0 mi South 9.2 mph - 0.00 in   Clear